TimeMDT,TemperatureF,Dew PointF,Humidity,Sea Level PressureIn,VisibilityMPH,Wind Direction,Wind SpeedMPH,Gust SpeedMPH,PrecipitationIn,Events,Conditions,WindDirDegrees,DateUTC
12:53 AM,30.9,3.0,31,30.02,10.0,Calm,Calm,-,N/A,,Clear,0,2012-10-19 06:53:00
1:53 AM,30.9,10.0,42,30.01,10.0,Calm,Calm,-,N/A,,Clear,0,2012-10-19 07:53:00
2:53 AM,35.1,14.0,42,29.99,10.0,Calm,Calm,-,N/A,,Clear,0,2012-10-19 08:53:00
3:53 AM,30.9,12.9,47,30.00,10.0,WSW,3.5,-,N/A,,Clear,250,2012-10-19 09:53:00
4:53 AM,32.0,14.0,48,29.98,10.0,Calm,Calm,-,N/A,,Clear,0,2012-10-19 10:53:00
5:53 AM,32.0,15.1,50,29.98,10.0,Calm,Calm,-,N/A,,Clear,0,2012-10-19 11:53:00
6:53 AM,32.0,17.1,54,29.98,10.0,Calm,Calm,-,N/A,,Clear,0,2012-10-19 12:53:00
7:53 AM,34.0,19.0,54,29.99,10.0,Calm,Calm,-,N/A,,Clear,0,2012-10-19 13:53:00
8:53 AM,43.0,19.9,40,29.96,10.0,WSW,3.5,-,N/A,,Clear,240,2012-10-19 14:53:00
9:53 AM,50.0,21.0,32,29.90,10.0,SW,4.6,-,N/A,,Clear,220,2012-10-19 15:53:00
10:53 AM,53.1,21.0,29,29.87,10.0,West,9.2,-,N/A,,Clear,270,2012-10-19 16:53:00
11:53 AM,57.9,23.0,26,29.85,10.0,West,11.5,17.3,N/A,,Clear,260,2012-10-19 17:53:00
12:53 PM,61.0,25.0,25,29.78,10.0,WSW,9.2,18.4,N/A,,Clear,250,2012-10-19 18:53:00
1:53 PM,59.0,23.0,25,29.77,10.0,WSW,9.2,17.3,N/A,,Clear,250,2012-10-19 19:53:00
2:53 PM,61.0,24.1,24,29.73,10.0,SW,9.2,19.6,N/A,,Clear,230,2012-10-19 20:53:00
3:53 PM,61.0,24.1,24,29.73,10.0,WSW,11.5,-,N/A,,Clear,250,2012-10-19 21:53:00
4:53 PM,59.0,25.0,27,29.74,10.0,West,10.4,-,N/A,,Clear,260,2012-10-19 22:53:00
5:53 PM,53.1,25.0,34,29.77,10.0,WSW,4.6,-,N/A,,Clear,250,2012-10-19 23:53:00
6:53 PM,51.1,26.1,38,29.78,10.0,West,4.6,-,N/A,,Clear,270,2012-10-20 00:53:00
7:53 PM,51.1,25.0,36,29.76,10.0,WNW,3.5,-,N/A,,Clear,300,2012-10-20 01:53:00
8:53 PM,46.9,25.0,42,29.74,10.0,West,4.6,-,N/A,,Clear,270,2012-10-20 02:53:00
9:53 PM,42.1,24.1,49,29.73,10.0,West,5.8,-,N/A,,Clear,270,2012-10-20 03:53:00
10:53 PM,42.1,23.0,47,29.71,10.0,NW,3.5,-,N/A,,Clear,320,2012-10-20 04:53:00
11:53 PM,42.1,23.0,47,29.69,10.0,Calm,Calm,-,N/A,,Clear,0,2012-10-20 05:53:00